Regional Weather Roundup
Issued by NWS Goodland, KS

Home | Current Version | Previous Version | Graphics & Text | Print | Product List | Glossary On
Versions: 1 2 3 4 5 6 7 8 9 10 11 12 13 14 15 16 17 18 19 20 21 22 23 24 25 26 27 28 29 30 31 32 33 34 35 36 37 38 39 40 41 42 43 44 45 46 47 48 49 50
000
ASUS43 KGLD 290159
RWRGLD

GOODLAND FORECAST AREA HOURLY WEATHER ROUNDUP
NATIONAL WEATHER SERVICE GOODLAND KS
800 PM MDT TUE JUL 28 2015

...OFFICIAL OBSERVATIONS...

CITY           SKY/WX    TMP DP  RH WIND       PRES   REMARKS
GOODLAND KS    CLEAR     71  48  43 NE9       30.11R
HILL CITY KS   CLEAR     73  58  59 N8        30.01R
IMPERIAL NEB   CLEAR     72  49  44 E6        30.11R
MCCOOK NEB     CLEAR     73  54  51 NE8       30.06R
AKRON CO       CLEAR     72  38  29 E9        30.19R
BURLINGTON CO  CLEAR     72  48  42 NE7       30.15R
LIMON CO       CLEAR     68  46  45 E9        30.22R
$$

...UNOFFICIAL OBSERVATIONS...

CITY           SKY/WX    TMP DP  RH WIND       PRES   REMARKS
COLBY KS       CLEAR     75  57  53 NE7       30.09R
NORTON KS      CLEAR     73  52  46 N8        30.02S
SHARON SPRINGS   N/A     78  58  50 NE9         N/A
KIT CARSON CO    N/A     76  47  35 MISG        N/A
$$


USA.gov is the U.S. government's official web portal to all federal, state and local government web resources and services.